Location: Crescent
(42.8242°N, 73.7329°W)
Time: 07:06:25
(UTC+00:00)

Transit 4A - Pass Details

Date: 23 February 2026
Orbit: 864 x 977 km, 66.8° (Epoch: 9 March)

Event Time Altitude Azimuth Distance (km) Brightness Sun altitude
Rises 08:01:38 0° 226° (SW) 3,452 - -39.9°
Reaches altitude 10° 08:04:09 10° 231° (SW) 2,528 - -39.5°
Maximum altitude 08:09:50 51° 307° (NW) 1,117 - -38.5°
Exits shadow 08:13:30 22° 14° (NNE) 1,859 9.7 -37.9°
Drops below altitude 10° 08:15:43 10° 23° (NNE) 2,611 10.7 -37.6°
Sets 08:18:22 0° 28° (NNE) 3,575 11.6 -37.1°
